| time (UTC) | temp F | wind direction | speed knots | gust knots | rain 1hr in | rain 24hr in | rain mn in | humidity % | barometer mb |
| 20260507004059 | 68 | 153 | 0.0 | 1.7 | 0.00 | 0.10 | 0.10 | 85 | 1011.2 |
| 20260507003554 | 69 | 150 | 0.0 | 0.0 | 0.00 | 0.10 | 0.10 | 85 | 1011.4 |
| 20260507003049 | 69 | 151 | 0.0 | 0.0 | 0.00 | 0.10 | 0.10 | 84 | 1011.3 |
| 20260507002546 | 69 | 151 | 0.0 | 0.9 | 0.00 | 0.10 | 0.10 | 84 | 1011.4 |
| 20260507002042 | 69 | 155 | 0.9 | 0.9 | 0.00 | 0.10 | 0.10 | 83 | 1011.5 |
| 20260507001539 | 69 | 78 | 0.9 | 0.9 | 0.00 | 0.10 | 0.10 | 83 | 1011.5 |
| 20260507001037 | 70 | 166 | 0.0 | 0.9 | 0.00 | 0.10 | 0.10 | 82 | 1011.5 |
| 20260507000533 | 70 | 145 | 0.0 | 0.9 | 0.00 | 0.10 | 0.10 | 82 | 1011.3 |
| 20260507000028 | 70 | 171 | 0.9 | 0.9 | 0.00 | 0.10 | 0.10 | 82 | 1011.2 |
| 20260506235526 | 70 | 150 | 0.0 | 0.9 | 0.00 | 0.10 | 0.10 | 81 | 1011.1 |
| 20260506235021 | 70 | 167 | 0.0 | 1.7 | 0.00 | 0.10 | 0.10 | 81 | 1011.1 |
| 20260506234519 | 70 | 168 | 0.0 | 1.7 | 0.00 | 0.10 | 0.10 | 80 | 1011.0 |
| 20260506234016 | 71 | 149 | 0.9 | 2.6 | 0.00 | 0.10 | 0.10 | 80 | 1011.0 |
| 20260506233512 | 71 | 207 | 0.9 | 1.7 | 0.00 | 0.10 | 0.10 | 79 | 1010.9 |
| 20260506233010 | 71 | 163 | 0.9 | 5.2 | 0.00 | 0.10 | 0.10 | 79 | 1010.9 |
| 20260506232505 | 71 | 150 | 0.9 | 1.7 | 0.00 | 0.10 | 0.10 | 79 | 1011.0 |
| 20260506232001 | 71 | 154 | 1.7 | 2.6 | 0.00 | 0.10 | 0.10 | 79 | 1011.0 |
| 20260506231459 | 71 | 158 | 0.9 | 1.7 | 0.00 | 0.10 | 0.10 | 78 | 1011.1 |
| 20260506230956 | 72 | 167 | 0.0 | 0.9 | 0.00 | 0.10 | 0.10 | 77 | 1010.6 |
| 20260506230452 | 72 | 154 | 0.9 | 3.5 | 0.00 | 0.10 | 0.10 | 77 | 1011.2 |
| 20260506225949 | 72 | 156 | 0.0 | 0.9 | 0.00 | 0.10 | 0.10 | 77 | 1011.2 |
| 20260506225447 | 71 | 142 | 0.9 | 1.7 | 0.00 | 0.10 | 0.10 | 78 | 1011.0 |
| 20260506224943 | 71 | 155 | 0.0 | 1.7 | 0.00 | 0.10 | 0.10 | 78 | 1011.1 |
| 20260506224441 | 71 | 211 | 0.9 | 1.7 | 0.00 | 0.10 | 0.10 | 77 | 1011.1 |
| 20260506223937 | 71 | 154 | 1.7 | 3.5 | 0.00 | 0.10 | 0.10 | 77 | 1011.0 |
| 20260506223432 | 71 | 155 | 0.9 | 2.6 | 0.00 | 0.10 | 0.10 | 77 | 1011.1 |
| 20260506222930 | 71 | 157 | 0.9 | 2.6 | 0.00 | 0.10 | 0.10 | 77 | 1011.0 |
| 20260506222426 | 71 | 153 | 0.0 | 1.7 | 0.00 | 0.10 | 0.10 | 76 | 1011.1 |
| 20260506221923 | 71 | 148 | 0.9 | 1.7 | 0.00 | 0.10 | 0.10 | 76 | 1011.1 |
| 20260506221420 | 71 | 182 | 1.7 | 2.6 | 0.00 | 0.10 | 0.10 | 76 | 1011.0 |
| 20260506220918 | 72 | 174 | 0.9 | 1.7 | 0.00 | 0.10 | 0.10 | 77 | 1010.8 |
| 20260506220414 | 72 | 192 | 0.9 | 0.9 | 0.00 | 0.10 | 0.10 | 76 | 1010.9 |
| 20260506215910 | 72 | 172 | 0.9 | 2.6 | 0.00 | 0.10 | 0.10 | 76 | 1011.1 |
| 20260506215407 | 72 | 279 | 3.5 | 5.2 | 0.00 | 0.10 | 0.10 | 75 | 1011.0 |
| 20260506214902 | 72 | 201 | 1.7 | 7.0 | 0.00 | 0.10 | 0.10 | 75 | 1011.0 |
| 20260506214359 | 72 | 148 | 0.0 | 0.9 | 0.00 | 0.10 | 0.10 | 76 | 1011.1 |
| 20260506213857 | 73 | 166 | 0.0 | 0.0 | 0.00 | 0.10 | 0.10 | 76 | 1011.1 |
| 20260506213355 | 72 | 190 | 0.9 | 1.7 | 0.00 | 0.10 | 0.10 | 76 | 1011.2 |
| 20260506212852 | 72 | 140 | 1.7 | 2.6 | 0.00 | 0.10 | 0.10 | 76 | 1011.5 |
| 20260506212347 | 72 | 199 | 0.9 | 3.5 | 0.00 | 0.10 | 0.10 | 77 | 1011.3 |
| 20260506211842 | 72 | 168 | 0.0 | 0.9 | 0.00 | 0.10 | 0.10 | 78 | 1011.2 |
| 20260506211339 | 72 | 170 | 0.0 | 1.7 | 0.00 | 0.10 | 0.10 | 78 | 1011.3 |
| 20260506210836 | 72 | 182 | 0.9 | 1.7 | 0.00 | 0.10 | 0.10 | 78 | 1011.3 |
| 20260506210333 | 72 | 155 | 0.9 | 1.7 | 0.00 | 0.10 | 0.10 | 78 | 1011.2 |
| 20260506205830 | 73 | 206 | 1.7 | 7.8 | 0.00 | 0.10 | 0.10 | 77 | 1011.2 |
| 20260506205326 | 73 | 186 | 0.9 | 1.7 | 0.00 | 0.10 | 0.10 | 78 | 1011.1 |
| 20260506204822 | 73 | 179 | 0.9 | 1.7 | 0.00 | 0.10 | 0.10 | 78 | 1011.3 |
| 20260506204320 | 71 | 169 | 0.0 | 0.9 | 0.00 | 0.10 | 0.10 | 81 | 1011.1 |
| 20260506203818 | 71 | 161 | 0.0 | 1.7 | 0.00 | 0.10 | 0.10 | 81 | 1011.1 |
| 20260506203315 | 71 | 191 | 0.9 | 1.7 | 0.00 | 0.10 | 0.10 | 82 | 1011.2 |
| 20260506202811 | 71 | 180 | 0.9 | 1.7 | 0.00 | 0.10 | 0.10 | 82 | 1011.1 |
| 20260506202308 | 71 | 171 | 0.0 | 0.9 | 0.00 | 0.10 | 0.10 | 82 | 1011.2 |
| 20260506201805 | 70 | 183 | 0.9 | 1.7 | 0.00 | 0.10 | 0.10 | 82 | 1011.3 |
| 20260506201302 | 70 | 173 | 0.0 | 0.9 | 0.00 | 0.10 | 0.10 | 81 | 1011.2 |
| 20260506200759 | 70 | 173 | 0.0 | 2.6 | 0.00 | 0.10 | 0.10 | 83 | 1011.2 |
| 20260506200255 | 70 | 164 | 0.0 | 0.9 | 0.00 | 0.10 | 0.10 | 83 | 1010.9 |
| 20260506195752 | 69 | 132 | 0.0 | 3.5 | 0.00 | 0.10 | 0.10 | 83 | 1010.4 |
| 20260506195248 | 69 | 153 | 0.0 | 1.7 | 0.00 | 0.10 | 0.10 | 83 | 1010.4 |
| 20260506194746 | 69 | 130 | 0.9 | 1.7 | 0.00 | 0.10 | 0.10 | 84 | 1010.5 |
| 20260506194242 | 69 | 159 | 0.0 | 1.7 | 0.00 | 0.10 | 0.10 | 84 | 1010.5 |
| 20260506193740 | 69 | 165 | 0.0 | 0.9 | 0.00 | 0.10 | 0.10 | 85 | 1010.8 |
| 20260506193237 | 68 | 178 | 0.0 | 0.9 | 0.00 | 0.10 | 0.10 | 86 | 1010.9 |
| 20260506192733 | 68 | 157 | 0.9 | 2.6 | 0.00 | 0.10 | 0.10 | 86 | 1011.2 |
| 20260506192230 | 68 | 170 | 2.6 | 3.5 | 0.00 | 0.10 | 0.10 | 87 | 1011.1 |
| 20260506191727 | 68 | 150 | 0.9 | 2.6 | 0.00 | 0.10 | 0.10 | 87 | 1011.3 |
| 20260506191223 | 67 | 149 | 1.7 | 1.7 | 0.00 | 0.10 | 0.10 | 87 | 1011.5 |
| 20260506190720 | 67 | 166 | 1.7 | 3.5 | 0.00 | 0.10 | 0.10 | 88 | 1011.7 |
| 20260506190217 | 67 | 164 | 0.9 | 5.2 | 0.00 | 0.10 | 0.10 | 90 | 1011.6 |
| 20260506185714 | 66 | 161 | 0.9 | 0.9 | 0.00 | 0.10 | 0.10 | 89 | 1011.8 |
| 20260506185210 | 66 | 189 | 0.9 | 1.7 | 0.00 | 0.10 | 0.10 | 90 | 1011.8 |
| 20260506184708 | 66 | 169 | 0.9 | 1.7 | 0.00 | 0.10 | 0.10 | 90 | 1012.1 |
| 20260506184205 | 66 | 328 | 0.0 | 0.9 | 0.00 | 0.10 | 0.10 | 89 | 1011.8 |
| 20260506183701 | 66 | 169 | 1.7 | 2.6 | 0.00 | 0.10 | 0.10 | 88 | 1011.7 |
| 20260506183157 | 66 | 178 | 1.7 | 2.6 | 0.00 | 0.10 | 0.10 | 87 | 1012.0 |
| 20260506182655 | 67 | 225 | 0.9 | 3.5 | 0.00 | 0.10 | 0.10 | 87 | 1012.2 |
| 20260506182151 | 67 | 251 | 2.6 | 3.5 | 0.00 | 0.10 | 0.10 | 87 | 1012.3 |
| 20260506181644 | 67 | 164 | 1.7 | 1.7 | 0.00 | 0.10 | 0.10 | 87 | 1012.5 |
| 20260506181141 | 67 | 216 | 2.6 | 3.5 | 0.00 | 0.10 | 0.10 | 86 | 1012.4 |
| 20260506180638 | 67 | 215 | 2.6 | 3.5 | 0.00 | 0.10 | 0.10 | 86 | 1012.5 |
| 20260506180134 | 67 | 150 | 0.9 | 7.8 | 0.00 | 0.10 | 0.10 | 86 | 1012.6 |
| 20260506175631 | 67 | 162 | 0.0 | 2.6 | 0.00 | 0.10 | 0.10 | 86 | 1012.6 |
| 20260506175127 | 67 | 153 | 0.9 | 3.5 | 0.00 | 0.10 | 0.10 | 86 | 1012.5 |
| 20260506174626 | 67 | 135 | 0.0 | 3.5 | 0.00 | 0.10 | 0.10 | 86 | 1012.5 |
| 20260506174122 | 67 | 149 | 0.0 | 0.9 | 0.00 | 0.10 | 0.10 | 85 | 1012.4 |
| 20260506173620 | 67 | 105 | 1.7 | 6.1 | 0.00 | 0.10 | 0.10 | 85 | 1012.5 |
| 20260506173116 | 67 | 154 | 0.0 | 5.2 | 0.00 | 0.10 | 0.10 | 86 | 1012.6 |
| 20260506172614 | 66 | 187 | 1.7 | 6.1 | 0.00 | 0.10 | 0.10 | 86 | 1012.7 |
| 20260506172110 | 66 | 236 | 3.5 | 5.2 | 0.00 | 0.10 | 0.10 | 86 | 1012.4 |
| 20260506171608 | 66 | 158 | 1.7 | 2.6 | 0.00 | 0.10 | 0.10 | 86 | 1012.4 |
| 20260506171105 | 66 | 167 | 1.7 | 5.2 | 0.00 | 0.10 | 0.10 | 86 | 1012.9 |
| 20260506170601 | 66 | 160 | 0.9 | 1.7 | 0.00 | 0.10 | 0.10 | 88 | 1012.9 |
| 20260506170054 | 66 | 153 | 0.0 | 1.7 | 0.00 | 0.10 | 0.10 | 88 | 1013.1 |
| 20260506165552 | 66 | 176 | 0.9 | 2.6 | 0.00 | 0.10 | 0.10 | 88 | 1013.0 |
| 20260506165048 | 65 | 165 | 0.9 | 7.0 | 0.00 | 0.10 | 0.10 | 88 | 1012.9 |
| 20260506164545 | 66 | 221 | 0.9 | 3.5 | 0.00 | 0.10 | 0.10 | 87 | 1012.9 |
| 20260506164042 | 66 | 199 | 0.9 | 1.7 | 0.00 | 0.10 | 0.10 | 88 | 1012.9 |
| 20260506163538 | 66 | 159 | 0.0 | 3.5 | 0.00 | 0.10 | 0.10 | 89 | 1013.0 |
| 20260506163033 | 65 | 129 | 1.7 | 5.2 | 0.00 | 0.10 | 0.10 | 88 | 1012.9 |
| 20260506162530 | 65 | 163 | 0.9 | 0.9 | 0.00 | 0.10 | 0.10 | 90 | 1012.8 |
| 20260506162022 | 64 | 151 | 0.9 | 1.7 | 0.00 | 0.10 | 0.10 | 91 | 1012.9 |
| 20260506161519 | 63 | 144 | 0.9 | 2.6 | 0.00 | 0.10 | 0.10 | 92 | 1013.0 |
| 20260506161016 | 62 | 172 | 0.9 | 5.2 | 0.00 | 0.10 | 0.10 | 93 | 1012.9 |
| 20260506160514 | 62 | 129 | 2.6 | 3.5 | 0.00 | 0.10 | 0.10 | 95 | 1012.8 |
| 20260506160011 | 62 | 110 | 2.6 | 3.5 | 0.00 | 0.10 | 0.10 | 95 | 1013.0 |
| 20260506155508 | 62 | 176 | 1.7 | 3.5 | 0.00 | 0.10 | 0.10 | 95 | 1012.8 |
| 20260506153640 | 62 | 190 | 0.9 | 2.6 | 0.00 | 0.10 | 0.10 | 97 | 1013.6 |
| 20260506153137 | 62 | 158 | 0.0 | 1.7 | 0.00 | 0.10 | 0.10 | 97 | 1013.5 |
| 20260506152634 | 62 | 156 | 0.0 | 1.7 | 0.00 | 0.10 | 0.10 | 97 | 1013.8 |
| 20260506152132 | 62 | 156 | 0.0 | 1.7 | 0.00 | 0.10 | 0.10 | 98 | 1013.7 |
| 20260506151631 | 62 | 156 | 0.0 | 1.7 | 0.00 | 0.10 | 0.10 | 98 | 1013.8 |
| 20260506151127 | 62 | 168 | 0.9 | 1.7 | 0.00 | 0.10 | 0.10 | 98 | 1013.6 |
| 20260506150624 | 61 | 143 | 0.0 | 1.7 | 0.00 | 0.10 | 0.10 | 97 | 1013.9 |
| 20260506150121 | 61 | 166 | 0.0 | 0.0 | 0.05 | 0.10 | 0.10 | 97 | 1013.8 |
| 20260506145618 | 61 | 158 | 0.0 | 2.6 | 0.12 | 0.10 | 0.10 | 96 | 1013.7 |
| 20260506145115 | 61 | 125 | 0.9 | 1.7 | 0.19 | 0.09 | 0.09 | 95 | 1014.0 |
| 20260506144612 | 61 | 162 | 0.0 | 1.7 | 0.12 | 0.08 | 0.08 | 94 | 1014.2 |
| 20260506144108 | 62 | 154 | 0.0 | 1.7 | 0.12 | 0.06 | 0.06 | 93 | 1014.3 |
| 20260506143606 | 62 | 161 | 1.7 | 5.2 | 0.12 | 0.05 | 0.05 | 91 | 1014.3 |
| 20260506143104 | 62 | 229 | 1.7 | 2.6 | 0.05 | 0.04 | 0.04 | 90 | 1014.2 |
| 20260506142602 | 63 | 141 | 0.9 | 2.6 | 0.07 | 0.03 | 0.03 | 88 | 1014.2 |
| 20260506142100 | 63 | 152 | 0.9 | 2.6 | 0.07 | 0.03 | 0.03 | 88 | 1014.1 |
| 20260506141557 | 63 | 256 | 2.6 | 5.2 | 0.05 | 0.02 | 0.02 | 87 | 1014.0 |
| 20260506141056 | 64 | 148 | 0.9 | 2.6 | 0.12 | 0.02 | 0.02 | 86 | 1014.1 |
| 20260506140553 | 64 | 166 | 0.9 | 1.7 | 0.07 | 0.01 | 0.01 | 83 | 1013.8 |
| 20260506140050 | 66 | 193 | 3.5 | 6.1 | 0.00 | 0.00 | 0.00 | 78 | 1014.0 |
| 20260506135547 | 66 | 150 | 3.5 | 5.2 | 0.00 | 0.00 | 0.00 | 74 | 1013.9 |
| 20260506135043 | 66 | 154 | 0.0 | 3.5 | 0.00 | 0.00 | 0.00 | 73 | 1013.9 |
| 20260506134539 | 66 | 175 | 2.6 | 7.0 | 0.00 | 0.00 | 0.00 | 73 | 1013.8 |
| 20260506134035 | 66 | 144 | 1.7 | 2.6 | 0.00 | 0.00 | 0.00 | 75 | 1013.8 |
| 20260506133533 | 66 | 120 | 0.9 | 1.7 | 0.00 | 0.00 | 0.00 | 75 | 1013.7 |
| 20260506133030 | 66 | 114 | 0.9 | 2.6 | 0.00 | 0.00 | 0.00 | 75 | 1013.8 |
| 20260506132527 | 66 | 174 | 2.6 | 3.5 | 0.00 | 0.00 | 0.00 | 75 | 1013.8 |
| 20260506132024 | 67 | 188 | 2.6 | 5.2 | 0.00 | 0.00 | 0.00 | 75 | 1013.5 |
| 20260506131521 | 67 | 202 | 1.7 | 2.6 | 0.00 | 0.00 | 0.00 | 75 | 1013.8 |
| 20260506131018 | 66 | 145 | 1.7 | 2.6 | 0.00 | 0.00 | 0.00 | 75 | 1013.7 |
| 20260506130514 | 66 | 198 | 0.9 | 2.6 | 0.00 | 0.00 | 0.00 | 75 | 1013.6 |
| 20260506130012 | 66 | 161 | 0.0 | 2.6 | 0.00 | 0.00 | 0.00 | 76 | 1013.6 |
| 20260506125510 | 65 | 128 | 1.7 | 2.6 | 0.00 | 0.00 | 0.00 | 77 | 1013.7 |
| 20260506125007 | 65 | 149 | 0.0 | 3.5 | 0.00 | 0.00 | 0.00 | 77 | 1013.6 |
| 20260506124505 | 65 | 134 | 0.9 | 5.2 | 0.00 | 0.00 | 0.00 | 78 | 1013.7 |
| 20260506124003 | 65 | 168 | 1.7 | 2.6 | 0.00 | 0.00 | 0.00 | 77 | 1013.6 |
| 20260506123500 | 65 | 158 | 0.9 | 2.6 | 0.00 | 0.00 | 0.00 | 77 | 1013.5 |
| 20260506122958 | 65 | 148 | 0.9 | 0.9 | 0.00 | 0.00 | 0.00 | 76 | 1013.3 |
| 20260506122455 | 66 | 134 | 0.0 | 0.9 | 0.00 | 0.00 | 0.00 | 76 | 1013.3 |
| 20260506121953 | 66 | 154 | 1.7 | 2.6 | 0.00 | 0.00 | 0.00 | 76 | 1013.4 |
| 20260506121450 | 65 | 107 | 1.7 | 3.5 | 0.00 | 0.00 | 0.00 | 76 | 1013.4 |
| 20260506120946 | 65 | 156 | 0.9 | 1.7 | 0.00 | 0.00 | 0.00 | 78 | 1013.4 |
| 20260506120444 | 64 | 151 | 1.7 | 2.6 | 0.00 | 0.00 | 0.00 | 78 | 1013.6 |
| 20260506115941 | 64 | 162 | 0.9 | 5.2 | 0.00 | 0.00 | 0.00 | 78 | 1013.5 |
| 20260506115439 | 64 | 167 | 3.5 | 5.2 | 0.00 | 0.00 | 0.00 | 78 | 1013.6 |
| 20260506114937 | 64 | 151 | 0.0 | 3.5 | 0.00 | 0.00 | 0.00 | 78 | 1013.4 |
| 20260506114434 | 64 | 165 | 1.7 | 2.6 | 0.00 | 0.00 | 0.00 | 79 | 1013.5 |
| 20260506113933 | 64 | 164 | 0.0 | 1.7 | 0.00 | 0.00 | 0.00 | 79 | 1013.2 |
| 20260506113431 | 63 | 144 | 0.9 | 2.6 | 0.00 | 0.00 | 0.00 | 79 | 1013.3 |
| 20260506112927 | 63 | 127 | 0.9 | 2.6 | 0.00 | 0.00 | 0.00 | 79 | 1013.4 |
| 20260506112425 | 63 | 139 | 0.9 | 5.2 | 0.00 | 0.00 | 0.00 | 80 | 1013.5 |
| 20260506111921 | 63 | 145 | 1.7 | 1.7 | 0.00 | 0.00 | 0.00 | 79 | 1013.4 |
| 20260506111420 | 63 | 209 | 0.0 | 1.7 | 0.00 | 0.00 | 0.00 | 79 | 1013.4 |
| 20260506110916 | 63 | 98 | 1.7 | 7.0 | 0.00 | 0.00 | 0.00 | 79 | 1013.3 |
| 20260506110414 | 63 | 145 | 1.7 | 5.2 | 0.00 | 0.00 | 0.00 | 79 | 1013.4 |
| 20260506105910 | 63 | 164 | 1.7 | 2.6 | 0.00 | 0.00 | 0.00 | 79 | 1013.7 |
| 20260506105407 | 63 | 163 | 0.0 | 1.7 | 0.00 | 0.00 | 0.00 | 79 | 1013.6 |
| 20260506104904 | 63 | 110 | 1.7 | 1.7 | 0.00 | 0.00 | 0.00 | 79 | 1013.6 |
| 20260506104402 | 63 | 257 | 1.7 | 3.5 | 0.00 | 0.00 | 0.00 | 79 | 1013.6 |
| 20260506103900 | 63 | 180 | 0.9 | 1.7 | 0.00 | 0.00 | 0.00 | 79 | 1013.7 |
| 20260506103357 | 63 | 163 | 0.0 | 2.6 | 0.00 | 0.00 | 0.00 | 79 | 1013.8 |
| 20260506102854 | 63 | 161 | 0.0 | 1.7 | 0.00 | 0.00 | 0.00 | 78 | 1013.5 |
| 20260506102352 | 63 | 131 | 0.9 | 2.6 | 0.00 | 0.00 | 0.00 | 78 | 1013.4 |
| 20260506101849 | 63 | 154 | 0.0 | 2.6 | 0.00 | 0.00 | 0.00 | 78 | 1013.4 |
| 20260506101345 | 63 | 257 | 2.6 | 6.1 | 0.00 | 0.00 | 0.00 | 78 | 1013.3 |
| 20260506100843 | 63 | 165 | 0.9 | 1.7 | 0.00 | 0.00 | 0.00 | 78 | 1013.4 |
| 20260506100341 | 63 | 201 | 1.7 | 6.1 | 0.00 | 0.00 | 0.00 | 78 | 1013.4 |
| 20260506095839 | 63 | 134 | 1.7 | 1.7 | 0.00 | 0.00 | 0.00 | 78 | 1013.1 |
| 20260506095336 | 63 | 197 | 1.7 | 6.1 | 0.00 | 0.00 | 0.00 | 77 | 1013.4 |
| 20260506094833 | 63 | 161 | 0.9 | 1.7 | 0.00 | 0.00 | 0.00 | 77 | 1013.4 |
| 20260506094332 | 64 | 89 | 1.7 | 6.1 | 0.00 | 0.00 | 0.00 | 77 | 1013.3 |
| 20260506093829 | 64 | 112 | 0.9 | 5.2 | 0.00 | 0.00 | 0.00 | 77 | 1013.2 |
| 20260506093326 | 64 | 127 | 1.7 | 5.2 | 0.00 | 0.00 | 0.00 | 77 | 1013.3 |
| 20260506092824 | 64 | 127 | 0.0 | 5.2 | 0.00 | 0.00 | 0.00 | 77 | 1013.2 |
| 20260506092322 | 64 | 99 | 1.7 | 7.0 | 0.00 | 0.00 | 0.00 | 77 | 1013.3 |
| 20260506091818 | 64 | 209 | 1.7 | 2.6 | 0.00 | 0.00 | 0.00 | 77 | 1013.3 |
| 20260506091316 | 64 | 178 | 1.7 | 2.6 | 0.00 | 0.00 | 0.00 | 77 | 1013.2 |
| 20260506090814 | 64 | 99 | 0.9 | 2.6 | 0.00 | 0.00 | 0.00 | 77 | 1013.2 |
| 20260506090311 | 64 | 114 | 0.9 | 2.6 | 0.00 | 0.00 | 0.00 | 77 | 1013.2 |
| 20260506085807 | 64 | 195 | 3.5 | 5.2 | 0.00 | 0.00 | 0.00 | 78 | 1013.4 |
| 20260506085305 | 64 | 201 | 1.7 | 5.2 | 0.00 | 0.00 | 0.00 | 78 | 1013.5 |
| 20260506084800 | 64 | 184 | 1.7 | 1.7 | 0.00 | 0.00 | 0.00 | 78 | 1013.6 |
| 20260506084256 | 64 | 158 | 0.9 | 5.2 | 0.00 | 0.00 | 0.00 | 78 | 1013.5 |
| 20260506083754 | 64 | 202 | 2.6 | 3.5 | 0.00 | 0.00 | 0.00 | 78 | 1013.5 |
| 20260506083251 | 64 | 189 | 1.7 | 1.7 | 0.00 | 0.00 | 0.00 | 78 | 1013.6 |
| 20260506082748 | 64 | 141 | 0.0 | 1.7 | 0.00 | 0.00 | 0.00 | 78 | 1013.6 |
| 20260506082243 | 64 | 169 | 1.7 | 3.5 | 0.00 | 0.00 | 0.00 | 78 | 1013.6 |
| 20260506081742 | 64 | 164 | 2.6 | 6.1 | 0.00 | 0.00 | 0.00 | 78 | 1013.5 |
| 20260506081239 | 64 | 171 | 0.9 | 2.6 | 0.00 | 0.00 | 0.00 | 78 | 1013.7 |
| 20260506080737 | 64 | 123 | 1.7 | 5.2 | 0.00 | 0.00 | 0.00 | 78 | 1013.5 |
| 20260506080233 | 64 | 113 | 0.0 | 1.7 | 0.00 | 0.00 | 0.00 | 78 | 1013.5 |
| 20260506073217 | 65 | 148 | 0.0 | 2.6 | 0.00 | 0.00 | 0.00 | 77 | 1013.7 |
| 20260506072714 | 65 | 188 | 1.7 | 3.5 | 0.00 | 0.00 | 0.00 | 77 | 1013.7 |
| 20260506072212 | 65 | 174 | 0.9 | 5.2 | 0.00 | 0.00 | 0.00 | 77 | 1013.8 |
| 20260506071709 | 65 | 163 | 1.7 | 7.0 | 0.00 | 0.00 | 0.00 | 77 | 1013.7 |
| 20260506071207 | 65 | 123 | 0.9 | 7.0 | 0.00 | 0.00 | 0.00 | 77 | 1013.7 |
| 20260506070703 | 65 | 126 | 1.7 | 2.6 | 0.00 | 0.00 | 0.00 | 76 | 1013.9 |
| 20260506070201 | 65 | 159 | 0.9 | 3.5 | 0.00 | 0.00 | 0.00 | 76 | 1013.9 |
| 20260506062137 | 66 | 202 | 5.2 | 7.8 | 0.00 | 0.00 | 0.00 | 75 | 1014.0 |
| 20260506061633 | 66 | 177 | 0.9 | 2.6 | 0.00 | 0.00 | 0.00 | 75 | 1013.9 |
| 20260506061131 | 66 | 128 | 0.9 | 1.7 | 0.00 | 0.00 | 0.00 | 75 | 1014.0 |
| 20260506060629 | 66 | 186 | 2.6 | 5.2 | 0.00 | 0.00 | 0.00 | 74 | 1014.1 |
| 20260506060126 | 66 | 194 | 1.7 | 5.2 | 0.00 | 0.00 | 0.00 | 74 | 1014.1 |
| 20260506051058 | 67 | 165 | 2.6 | 5.2 | 0.00 | 0.00 | 0.00 | 73 | 1014.5 |
| 20260506050556 | 67 | 118 | 0.0 | 1.7 | 0.00 | 0.00 | 0.00 | 73 | 1014.5 |
| 20260506045046 | 68 | 176 | 1.7 | 2.6 | 0.00 | 0.00 | 0.00 | 72 | 1014.8 |
| 20260506044544 | 68 | 113 | 1.7 | 3.5 | 0.00 | 0.00 | 0.00 | 72 | 1014.8 |
| 20260506044041 | 68 | 185 | 2.6 | 6.1 | 0.00 | 0.00 | 0.00 | 71 | 1014.9 |
| 20260506043538 | 68 | 177 | 2.6 | 6.1 | 0.00 | 0.00 | 0.00 | 71 | 1014.8 |
| 20260506043036 | 68 | 150 | 1.7 | 7.0 | 0.00 | 0.00 | 0.00 | 70 | 1014.8 |
| 20260506042535 | 69 | 199 | 3.5 | 3.5 | 0.00 | 0.00 | 0.00 | 70 | 1014.7 |
| 20260506042033 | 69 | 184 | 3.5 | 5.2 | 0.00 | 0.00 | 0.00 | 70 | 1014.6 |
| 20260506041531 | 69 | 166 | 0.0 | 2.6 | 0.00 | 0.00 | 0.00 | 69 | 1014.7 |
| 20260506041027 | 69 | 182 | 0.9 | 5.2 | 0.00 | 0.00 | 0.00 | 69 | 1014.6 |
| 20260506040526 | 69 | 145 | 0.9 | 2.6 | 0.00 | 0.00 | 0.00 | 68 | 1014.6 |
| 20260506040021 | 69 | 187 | 1.7 | 7.0 | 0.00 | 0.00 | 0.00 | 68 | 1014.7 |
| 20260506035518 | 69 | 169 | 1.7 | 3.5 | 0.00 | 0.00 | 0.00 | 68 | 1014.5 |
| 20260506035015 | 69 | 107 | 1.7 | 6.1 | 0.00 | 0.00 | 0.00 | 67 | 1014.6 |
| 20260506034513 | 70 | 172 | 0.9 | 6.1 | 0.00 | 0.00 | 0.00 | 66 | 1014.6 |
| 20260506034009 | 70 | 137 | 1.7 | 7.0 | 0.00 | 0.00 | 0.00 | 65 | 1014.7 |
| 20260506033507 | 70 | 200 | 0.9 | 2.6 | 0.00 | 0.00 | 0.00 | 64 | 1014.5 |
| 20260506033004 | 70 | 165 | 1.7 | 2.6 | 0.00 | 0.00 | 0.00 | 63 | 1014.6 |
| 20260506032501 | 70 | 132 | 0.0 | 3.5 | 0.00 | 0.00 | 0.00 | 63 | 1014.7 |
| 20260506031956 | 70 | 204 | 0.0 | 0.9 | 0.00 | 0.00 | 0.00 | 62 | 1014.6 |
| 20260506031455 | 70 | 132 | 0.0 | 2.6 | 0.00 | 0.00 | 0.00 | 61 | 1014.6 |
| 20260506030952 | 70 | 135 | 0.0 | 1.7 | 0.00 | 0.00 | 0.00 | 60 | 1014.4 |
| 20260506030450 | 71 | 145 | 0.9 | 0.9 | 0.00 | 0.00 | 0.00 | 59 | 1014.4 |
| 20260506025946 | 71 | 180 | 1.7 | 2.6 | 0.00 | 0.00 | 0.00 | 58 | 1014.4 |
| 20260506025443 | 72 | 159 | 0.0 | 1.7 | 0.00 | 0.00 | 0.00 | 58 | 1014.3 |
| 20260506024940 | 72 | 207 | 2.6 | 3.5 | 0.00 | 0.00 | 0.00 | 57 | 1014.6 |
| 20260506024437 | 72 | 227 | 2.6 | 6.1 | 0.00 | 0.00 | 0.00 | 57 | 1014.4 |
| 20260506023932 | 72 | 154 | 2.6 | 3.5 | 0.00 | 0.00 | 0.00 | 56 | 1014.5 |
| 20260506023430 | 72 | 169 | 0.9 | 0.9 | 0.00 | 0.00 | 0.00 | 56 | 1014.4 |
| 20260506022926 | 72 | 169 | 0.9 | 1.7 | 0.00 | 0.00 | 0.00 | 55 | 1014.6 |
| 20260506022424 | 72 | 144 | 0.0 | 2.6 | 0.00 | 0.00 | 0.00 | 54 | 1014.5 |
| 20260506021922 | 72 | 155 | 0.9 | 3.5 | 0.00 | 0.00 | 0.00 | 54 | 1014.4 |
| 20260506021419 | 73 | 172 | 0.9 | 1.7 | 0.00 | 0.00 | 0.00 | 54 | 1014.4 |
| 20260506020916 | 73 | 112 | 3.5 | 3.5 | 0.00 | 0.00 | 0.00 | 53 | 1014.3 |
| 20260506020414 | 73 | 129 | 0.0 | 1.7 | 0.00 | 0.00 | 0.00 | 53 | 1014.3 |
| 20260506015911 | 73 | 154 | 0.0 | 0.9 | 0.00 | 0.00 | 0.00 | 53 | 1014.3 |
| 20260506015408 | 73 | 169 | 0.0 | 2.6 | 0.00 | 0.00 | 0.00 | 53 | 1014.4 |
| 20260506014905 | 73 | 141 | 0.9 | 1.7 | 0.00 | 0.00 | 0.00 | 52 | 1014.3 |
| 20260506014402 | 73 | 126 | 0.0 | 3.5 | 0.00 | 0.00 | 0.00 | 52 | 1014.2 |
| 20260506013858 | 73 | 194 | 0.0 | 6.1 | 0.00 | 0.00 | 0.00 | 52 | 1014.2 |
| 20260506013356 | 73 | 195 | 1.7 | 3.5 | 0.00 | 0.00 | 0.00 | 52 | 1014.3 |
| 20260506012852 | 74 | 155 | 0.9 | 5.2 | 0.00 | 0.00 | 0.00 | 52 | 1014.1 |
| 20260506012349 | 74 | 149 | 1.7 | 2.6 | 0.00 | 0.00 | 0.00 | 51 | 1014.0 |
| 20260506011846 | 74 | 123 | 0.0 | 6.1 | 0.00 | 0.00 | 0.00 | 51 | 1014.2 |
| 20260506011343 | 74 | 151 | 0.0 | 2.6 | 0.00 | 0.00 | 0.00 | 51 | 1013.9 |
| 20260506010840 | 74 | 168 | 1.7 | 2.6 | 0.00 | 0.00 | 0.00 | 51 | 1013.9 |
| 20260506010338 | 74 | 151 | 0.0 | 1.7 | 0.00 | 0.00 | 0.00 | 50 | 1013.9 |
| 20260506005835 | 74 | 145 | 0.9 | 3.5 | 0.00 | 0.00 | 0.00 | 49 | 1013.9 |
| 20260506005332 | 75 | 141 | 0.9 | 3.5 | 0.00 | 0.00 | 0.00 | 49 | 1013.7 |
| 20260506004828 | 75 | 145 | 0.9 | 2.6 | 0.00 | 0.00 | 0.00 | 48 | 1013.8 |
| 20260506004326 | 75 | 146 | 0.0 | 2.6 | 0.00 | 0.00 | 0.00 | 48 | 1013.6 |